Location: Hylvaty SDH
(49.9612°N, 16.4057°E)
Time: 12:45:10
(UTC+01:00)

A-11 Canister half - Pass Details

Date: 03 October 2020
Orbit: 1526 x 1683 km, 47.3° (Epoch: 28 October)

Event Time Altitude Azimuth Distance (km) Brightness Sun altitude
Rises 01:38:53 0° 271° (W) 4,684 - -42.6°
Reaches altitude 10° 01:41:54 10° 270° (W) 3,710 - -42.5°
Maximum altitude 01:51:14 76° 187° (S) 1,607 - -41.9°
Exits shadow 01:57:26 26° 107° (ESE) 2,760 10.3 -41.5°
Drops below altitude 10° 02:00:52 10° 104° (ESE) 3,812 11.1 -41.3°
Sets 02:04:00 0° 103° (ESE) 4,818 11.7 -41.0°
